TimeCST,TemperatureF,Dew PointF,Humidity,Sea Level PressureIn,VisibilityMPH,Wind Direction,Wind SpeedMPH,Gust SpeedMPH,PrecipitationIn,Events,Conditions,WindDirDegrees,DateUTC
12:12 AM,29.7,26.4,88,29.96,10.0,NW,13.8,-,N/A,,Overcast,320,2011-12-04 06:12:00
12:33 AM,29.7,25.3,84,29.96,10.0,NW,11.5,-,N/A,,Overcast,310,2011-12-04 06:33:00
1:13 AM,29.7,25.3,84,29.96,10.0,NW,15.0,21.9,N/A,,Overcast,310,2011-12-04 07:13:00
1:33 AM,29.7,24.8,82,29.96,10.0,NW,15.0,18.4,N/A,,Overcast,310,2011-12-04 07:33:00
1:52 AM,29.7,24.4,81,29.97,10.0,NW,11.5,-,N/A,,Overcast,310,2011-12-04 07:52:00
2:32 AM,27.1,21.7,80,29.99,10.0,NW,11.5,-,N/A,,Overcast,310,2011-12-04 08:32:00
2:52 AM,27.1,21.2,78,30.00,10.0,WNW,11.5,-,N/A,,Overcast,300,2011-12-04 08:52:00
3:13 AM,27.1,21.2,78,30.01,10.0,NW,12.7,-,N/A,,Overcast,310,2011-12-04 09:13:00
3:32 AM,27.1,21.2,78,30.00,10.0,NW,11.5,-,N/A,,Overcast,310,2011-12-04 09:32:00
3:53 AM,26.1,20.3,79,30.00,10.0,WNW,13.8,-,N/A,,Overcast,300,2011-12-04 09:53:00
4:12 AM,24.6,19.0,79,30.00,10.0,NW,12.7,-,N/A,,Overcast,310,2011-12-04 10:12:00
4:33 AM,24.6,19.2,80,30.00,10.0,NW,11.5,-,N/A,,Overcast,310,2011-12-04 10:33:00
4:52 AM,24.6,19.4,81,30.00,10.0,NW,12.7,-,N/A,,Overcast,310,2011-12-04 10:52:00
5:13 AM,24.6,19.4,81,30.01,10.0,WNW,13.8,-,N/A,,Overcast,300,2011-12-04 11:13:00
5:32 AM,24.6,19.4,81,30.01,10.0,WNW,13.8,-,N/A,,Overcast,300,2011-12-04 11:32:00
5:53 AM,24.6,19.4,81,30.03,10.0,WNW,10.4,-,N/A,,Overcast,300,2011-12-04 11:53:00
6:12 AM,23.4,18.1,80,30.04,10.0,WNW,8.1,-,N/A,,Overcast,300,2011-12-04 12:12:00
6:33 AM,23.4,18.1,80,30.04,10.0,WNW,12.7,-,N/A,,Overcast,300,2011-12-04 12:33:00
6:52 AM,23.0,17.6,80,30.06,10.0,WNW,11.5,-,N/A,,Overcast,300,2011-12-04 12:52:00
7:13 AM,22.8,17.6,80,30.07,10.0,WNW,9.2,-,N/A,,Overcast,290,2011-12-04 13:13:00
7:33 AM,22.6,17.4,80,30.08,10.0,NW,11.5,-,N/A,,Overcast,310,2011-12-04 13:33:00
7:52 AM,22.5,17.4,81,30.09,10.0,WNW,8.1,-,N/A,,Overcast,300,2011-12-04 13:52:00
8:13 AM,22.1,17.2,82,30.09,10.0,NW,9.2,-,N/A,,Overcast,310,2011-12-04 14:13:00
8:33 AM,22.1,17.1,81,30.09,10.0,NW,9.2,-,N/A,,Overcast,310,2011-12-04 14:33:00
8:52 AM,22.1,17.2,82,30.11,10.0,NW,9.2,-,N/A,,Overcast,310,2011-12-04 14:52:00
9:13 AM,22.1,17.4,82,30.12,10.0,NW,8.1,-,N/A,,Overcast,310,2011-12-04 15:13:00
9:33 AM,22.1,17.4,82,30.12,10.0,WNW,9.2,-,N/A,,Overcast,300,2011-12-04 15:33:00
9:52 AM,22.6,17.8,82,30.13,10.0,WNW,10.4,-,N/A,,Overcast,300,2011-12-04 15:52:00
10:13 AM,22.6,18.0,82,30.13,10.0,WNW,9.2,-,N/A,,Overcast,290,2011-12-04 16:13:00
10:33 AM,23.0,18.3,82,30.14,10.0,WNW,5.8,-,N/A,,Overcast,300,2011-12-04 16:33:00
10:52 AM,23.4,18.5,82,30.15,10.0,West,9.2,-,N/A,,Overcast,280,2011-12-04 16:52:00
11:13 AM,24.3,19.6,82,30.15,10.0,WNW,8.1,-,N/A,,Overcast,290,2011-12-04 17:13:00
11:33 AM,24.6,19.9,82,30.15,10.0,WNW,6.9,-,N/A,,Overcast,290,2011-12-04 17:33:00
11:53 AM,24.6,19.6,81,30.15,10.0,WNW,6.9,-,N/A,,Overcast,300,2011-12-04 17:53:00
12:13 PM,24.6,19.9,82,30.15,10.0,NW,8.1,-,N/A,,Overcast,320,2011-12-04 18:13:00
12:32 PM,24.6,19.9,82,30.15,10.0,NW,9.2,-,N/A,,Overcast,320,2011-12-04 18:32:00
12:53 PM,25.5,20.7,82,30.14,10.0,NNW,8.1,-,N/A,,Overcast,340,2011-12-04 18:53:00
1:13 PM,25.7,20.5,81,30.14,10.0,NW,5.8,-,N/A,,Overcast,320,2011-12-04 19:13:00
1:33 PM,25.7,20.5,81,30.15,10.0,WNW,6.9,-,N/A,,Overcast,300,2011-12-04 19:33:00
1:53 PM,24.8,19.4,80,30.15,10.0,WNW,6.9,-,N/A,,Overcast,300,2011-12-04 19:53:00
2:12 PM,24.6,19.2,80,30.16,10.0,NW,6.9,-,N/A,,Overcast,310,2011-12-04 20:12:00
2:33 PM,24.6,19.2,80,30.16,10.0,NW,6.9,-,N/A,,Overcast,310,2011-12-04 20:33:00
2:53 PM,24.6,19.2,80,30.16,10.0,West,6.9,-,N/A,,Overcast,270,2011-12-04 20:53:00
3:12 PM,24.6,19.2,80,30.18,10.0,NW,4.6,-,N/A,,Overcast,310,2011-12-04 21:12:00
3:33 PM,24.6,19.2,80,30.19,10.0,West,4.6,-,N/A,,Overcast,270,2011-12-04 21:33:00
3:52 PM,24.6,19.2,80,30.19,10.0,West,5.8,-,N/A,,Overcast,280,2011-12-04 21:52:00
4:13 PM,24.6,19.0,79,30.19,10.0,NW,4.6,-,N/A,,Overcast,320,2011-12-04 22:13:00
4:32 PM,24.6,19.2,80,30.20,10.0,NW,4.6,-,N/A,,Overcast,310,2011-12-04 22:32:00
4:53 PM,23.9,18.7,80,30.21,10.0,West,4.6,-,N/A,,Overcast,270,2011-12-04 22:53:00
5:12 PM,23.7,18.3,80,30.22,10.0,West,4.6,-,N/A,,Overcast,280,2011-12-04 23:12:00
5:33 PM,23.7,18.3,80,30.24,10.0,West,4.6,-,N/A,,Overcast,270,2011-12-04 23:33:00
5:52 PM,24.1,18.9,80,30.25,10.0,WNW,3.5,-,N/A,,Overcast,290,2011-12-04 23:52:00
6:13 PM,24.3,18.9,80,30.26,10.0,WNW,3.5,-,N/A,,Overcast,300,2011-12-05 00:13:00
6:32 PM,24.1,18.7,80,30.27,10.0,NNW,4.6,-,N/A,,Overcast,330,2011-12-05 00:32:00
7:12 PM,23.4,18.1,80,30.27,10.0,NNW,3.5,-,N/A,,Overcast,340,2011-12-05 01:12:00
7:33 PM,23.2,18.1,81,30.28,10.0,North,4.6,-,N/A,,Overcast,350,2011-12-05 01:33:00
7:53 PM,23.2,18.0,80,30.29,10.0,NW,3.5,-,N/A,,Overcast,310,2011-12-05 01:53:00
8:12 PM,23.0,17.8,80,30.30,10.0,NNW,4.6,-,N/A,,Overcast,330,2011-12-05 02:12:00
8:33 PM,23.0,17.6,80,30.31,10.0,NNW,4.6,-,N/A,,Overcast,340,2011-12-05 02:33:00
8:52 PM,22.8,17.4,80,30.32,10.0,NNW,4.6,-,N/A,,Overcast,330,2011-12-05 02:52:00
9:12 PM,22.1,16.7,80,30.32,10.0,NW,8.1,-,N/A,,Overcast,310,2011-12-05 03:12:00
9:33 PM,22.1,16.7,80,30.33,10.0,NW,8.1,-,N/A,,Overcast,310,2011-12-05 03:33:00
9:53 PM,22.1,16.7,80,30.33,10.0,WNW,6.9,-,N/A,,Overcast,300,2011-12-05 03:53:00
10:12 PM,22.1,16.7,80,30.33,10.0,NW,6.9,-,N/A,,Overcast,310,2011-12-05 04:12:00
10:33 PM,21.2,15.6,79,30.33,10.0,NW,4.6,-,N/A,,Overcast,310,2011-12-05 04:33:00
10:53 PM,21.2,15.8,80,30.33,10.0,NW,5.8,-,N/A,,Overcast,320,2011-12-05 04:53:00
11:12 PM,21.2,15.8,80,30.34,10.0,WNW,6.9,-,N/A,,Overcast,300,2011-12-05 05:12:00
11:33 PM,21.0,15.6,80,30.35,10.0,WNW,9.2,-,N/A,,Overcast,290,2011-12-05 05:33:00
11:52 PM,20.8,15.1,78,30.36,10.0,WNW,9.2,-,N/A,,Overcast,300,2011-12-05 05:52:00